Location: Newark
(44.3681°N, 100.3364°W)
Time: 16:57:21
(UTC+00:00)

Vanguard 1 - Pass Details

Date: 24 February 2020
Orbit: 649 x 3833 km, 34.2° (Epoch: 05 April)

Event Time Altitude Azimuth Distance (km) Brightness Sun altitude
Rises 13:05:24 0° 220° (SW) 7,818 14.3 -4.7°
Reaches altitude 10° 13:11:08 10° 214° (SSW) 6,909 14.1 -3.7°
Maximum altitude 13:31:45 42° 153° (SSE) 4,388 13.8 -0.1°
Drops below altitude 10° 13:47:10 10° 91° (E) 5,304 15.6 2.6°
Sets 13:50:48 0° 84° (E) 5,939 15.6 3.2°
